Regional Weather Roundup
Issued by NWS Grand Forks, ND

Home | Current Version | Previous Version | Text Only | Print | Product List | Glossary Off
Versions: 1 2 3 4 5 6 7 8 9 10 11 12 13 14 15 16 17 18 19 20 21 22 23 24 25 26 27 28 29 30 31 32 33 34 35 36 37 38 39 40 41 42 43 44 45 46 47 48 49 50

452
ASUS43 KFGF 190210
RWRFGF
PRAIRIE TO PINES  WEATHER ROUNDUP
NATIONAL WEATHER SERVICE EASTERN NORTH DAKOTA/GRAND FORKS ND
800 PM CST SAT NOV 18 2017

 **SATELLITE DATA USED TO AUGMENT SKY COVER AT AUTOMATED STATIONS**
 *****  WEATHER ACROSS EASTERN NORTH DAKOTA  *****

CITY           SKY/WX    TMP DP  RH WIND       PRES   REMARKS
GRAND FORKS    FAIR      16   8  71 NW12      30.04F WCI   3
GRAND FRKS AFB FLURRIES  16   5  62 W10       30.03F WCI   3
GRAND FRKS NWS   N/A     16 N/A N/A NW14        N/A  WCI   1
DEVILS LAKE    FAIR      12   8  84 W9        30.03F WCI   0
FARGO          FAIR      15   8  73 W7        30.08S WCI   5
WAHPETON ARPT  NOT AVBL
$$

 ***** WEATHER ACROSS CENTRAL AND WESTERN NORTH DAKOTA  *****

CITY           SKY/WX    TMP DP  RH WIND       PRES   REMARKS
BISMARCK       FAIR      25  18  74 CALM      30.08F
MINOT          FAIR      17  10  74 CALM      30.00F
JAMESTOWN      FAIR      17  11  77 W6        30.05F WCI   9
MINOT AFB      FAIR      11   7  84 S5        29.99F WCI   2
GARRISON         N/A     22  16  78 W9        30.01F WCI  12
WILLISTON      FAIR      26  18  71 W12       30.01F WCI  16
DICKINSON      FAIR      28  21  75 W13       30.02F WCI  17
HETTINGER      FAIR      25  18  74 W6        30.09S WCI  18
$$

 *****  OTHER AIRPORT OBSERVATIONS IN OUR AREA  *****

CITY           SKY/WX    TMP DP  RH WIND       PRES   REMARKS
WALHALLA       FAIR      14   5  67 NW9       30.01F WCI   2
GRAFTON AIRPOR FAIR      14   9  79 W9        30.05S WCI   2
VALLEY CITY AR MOCLDY    14  12  92 W9        30.07S WCI   2
CANDO          FAIR      10   9  92 W10       30.03F WCI  -3
CAVALIER APRT  FAIR      14   5  67 W12       30.02S WCI   0
GWINNER          N/A     12   7  79 SW3       30.09S
SHEYENNE NWR     N/A     16   8  71 NW5       29.95S WCI   9
ROLLA          FAIR      12   5  73 W8        29.98F WCI   1
 ***** THE ABOVE OBSERVATIONS ARE NON NWS ARE NOT QUALITY
       CONTROLLED AND MAY MIS-REPORT RAIN FOR SNOW...
$$

  *****  WEATHER ACROSS NORTHERN MINNESOTA  *****

CITY           SKY/WX    TMP DP  RH WIND       PRES   REMARKS
FLAG ISLAND    FAIR      12   7  79 W7        29.93F WCI   2
WARROAD        FAIR      10   7  85 W6        29.95F WCI   1
ROSEAU         FAIR      12   7  79 W7        29.97F WCI   2
HALLOCK        FAIR       9   3  78 W5        30.01F WCI   0
THF RVR FALLS  FAIR      13   7  77 W12       30.01F WCI  -1
BAUDETTE       MOCLDY    14   7  73 W12       29.95R WCI   0
WASKISH        FAIR      14   9  79 W15G21    29.98R WCI  -1
CROOKSTON      FAIR      16  10  79 NW9       30.05S WCI   4
STEPHEN NDAWN    N/A     12   5  73 W6          N/A  WCI   3
GREENBUSH NDAW   N/A     10   5  79 W7          N/A  WCI   0
$$
  *****  WEATHER ACROSS CENTRAL AND WEST MINNESOTA  *****

CITY           SKY/WX    TMP DP  RH WIND       PRES   REMARKS
FOSSTON        FAIR      12   9  85 W13       30.02S WCI  -3
BEMIDJI        FAIR      13   7  77 W9        29.99R WCI   0
PARK RAPIDS    FAIR      14   7  73 W12       29.99R WCI   0
ELBOW LAKE     FAIR      17  10  75 NW12      30.07S HAZE    WCI   4
WADENA         FAIR      16   9  73 NW10      30.01R WCI   3
DETROIT LAKES  FAIR      18  10  73 NW10      30.04S WCI   6
MOORHEAD       FAIR      18   9  68 W5        30.09R WCI  11
FERGUS FALLS   FAIR      16   9  73 NW9       30.10S WCI   4
MORRIS MN      FAIR      19  10  68 NW10      30.07S WCI   8
STAPLES        FAIR      14   9  79 NW13G18   30.01R WCI   0
$$
  *****  WEATHER ELSEWHERE ACROSS MINNESOTA  *****

CITY           SKY/WX    TMP DP  RH WIND       PRES   REMARKS
DULUTH         FAIR      17   9  70 NW20G25   29.88R WCI   1
INTRNTL FALLS  CLOUDY    16   7  67 W9        29.93R HAZE    WCI   4
ELY            CLOUDY    16   7  67 NW12G20   29.88R WCI   3
CLOQUET        FAIR      18   9  68 NW16G23   29.91R WCI   3
WHEATON        FAIR      18   9  68 NW8       30.11F WCI   7
BRAINERD       FAIR      18   9  68 NW15G21   29.99S WCI   4
HIBBING        CLOUDY    15   8  73 NW15      29.91S WCI   0
ALEXANDRIA     FAIR      19   9  65 NW14      30.04R WCI   6
SAINT CLOUD    FAIR      19  12  74 NW9       30.01S WCI   8
MINNEAPOLIS    FAIR      23  12  62 NW20G29   30.01R WCI   8
$$

  *****  WEATHER ACROSS SOUTH DAKOTA  *****

CITY           SKY/WX    TMP DP  RH WIND       PRES   REMARKS
SIOUX FALLS    FAIR      29  16  58 NW13      30.12R WCI  19
BROOKINGS      FAIR      22  15  75 NW9       30.10R WCI  12
WATERTOWN      FAIR      21  13  71 NW8       30.07R WCI  11
HURON          FAIR      18  13  80 W8        30.15R WCI   8
SISSETON         N/A     15   9  76 NW7       30.09S WCI   5
ABERDEEN       FAIR      22  15  75 W8        30.12F WCI  12
MITCHELL       FAIR      26  17  68 W6        30.17S WCI  19
PIERRE         FAIR      28  20  71 SW5       30.14S WCI  23
MOBRIDGE       FAIR      20  14  77 CALM      30.08F
RAPID CITY     FAIR      24  17  74 W5        30.16R WCI  18
$$

  *****  SOME WEATHER IN NEARBY STATES *****

CITY           SKY/WX    TMP DP  RH WIND       PRES   REMARKS
GLASGOW MT     FAIR      29  21  72 SW5       30.01F WCI  24
GREAT FALLS MT FAIR      39  17  41 SW25G33   30.03F
CHEYENNE WY    FAIR      29  13  51 W12       30.19R WCI  19
SCOTTSBLUFF NE FAIR      27  16  63 NW7       30.22R WCI  19
OMAHA NE       FAIR      34  22  61 NW14      30.17R WCI  25
DES MOINES IA  FAIR      34  23  64 NW21      30.06R WCI  22
DAVENPORT IA   MOCLDY    33  27  78 W16G23    29.91R WCI  23
CHICAGO IL     CLOUDY    39  29  67 NW23G29   29.73R
EAU CLAIRE WI  MOCLDY    28  15  58 NW17G28   29.90R WCI  16
LA CROSSE WI   FAIR      32  21  64 NW15      29.90R WCI  22
$$

  *****  SOME NATIONAL WEATHER *****

CITY           SKY/WX    TMP DP  RH WIND       PRES   REMARKS
LA GUARDIA NY  MOCLDY    51  45  79 S8        29.54F
RALEIGH NC     CLOUDY    63  52  67 SW15G23   29.69F
ATLANTA GA     CLOUDY    67  61  81 S12G21    29.72F
NEW ORLEANS LA FAIR      74  71  91 SW12      29.88S
OKLAHOMA CITY  FAIR      43  31  62 NW8       30.25R
ALBUQUERQUE NM FAIR      44   6  21 N7        30.34R
SALT LAKE CITY FAIR      37  26  64 N3        30.37S
LOS ANGELES CA FAIR      65  53  65 W10       30.06S
BOISE ID       FAIR      38  22  52 SE9       30.28F
SEATTLE WA     MOCLDY    46  38  73 S6        30.14S
$$

*** WEATHER ACROSS MANITOBA...SASKATCHEWAN AND ONTARIO ***
                ***ONTARIO***

CITY           SKY/WX    TMP DP  RH WIND       PRES   REMARKS
GERALDTON      LGT SNOW  14  12  92 N5        29.72F WCI   6
THUNDER BAY    FLURRIES  21  16  79 NW8       29.81S WCI  12
SIOUX LOOKOUT  FLURRIES  12   7  79 NW10      29.84R WCI  -1
TORONTO        LGT RAIN  45  43  93 N12       29.17F FOG
BIG TROUT LK   CLOUDY     9   3  78 W13       29.73F WCI  -7
PICKLE LAKE    FLURRIES  10   5  79 W10G21    29.77R WCI  -3
DRYDEN         FLURRIES  12   7  79 W9        29.85S WCI   0
KENORA         FLURRIES  10   5  79 NW7       29.89F WCI   0
$$
                *** MANITOBA***

CITY           SKY/WX    TMP DP  RH WIND       PRES   REMARKS
BRANDON        CLEAR      5  -2  72 SW2       29.99S
DAUPHIN        CLEAR     12   3  67 W15G21    29.97R WCI  -4
ISLAND LAKE    MOCLDY     9   3  78 W20       29.77S WCI -11
PILOT MOUND      N/A     10   5  79 W7          N/A  WCI   0
THE PAS        PTCLDY     7   0  72 W12G18    29.88F WCI  -9
THOMPSON       FLURRIES   9   1  72 W10G18    29.71S WCI  -6
WINNIPEG       PTCLDY     9   1  72 W9        29.97F WCI  -5
LYNN LAKE      FLURRIES   9   7  92 NW16G24   29.71S WCI  -9
CHURCHILL      LGT SNOW   7   3  85 W15G21    29.46F DRFTSNOWWCI -11
$$
                ***SASKATCHEWAN***

CITY           SKY/WX    TMP DP  RH WIND       PRES   REMARKS
ESTEVAN        PTCLDY    12   9  85 SW8       29.97F WCI   1
KINDERSLEY     PTCLDY     9   5  85 SW7       29.85F WCI  -3
LLOYDMINSTER   CLOUDY    21  14  73 SW14      29.78R WCI   8
PRINCE ALBERT  FLURRIES  10   5  79 SW6       29.91F WCI   1
REGINA         PTCLDY     9   5  85 E6        29.94F WCI  -1
YORKTON        CLEAR      7   3  85 SW6       29.93F WCI  -3
N. BATTLEFORD  MOCLDY    12   5  73 SE7       29.86F WCI   2
LA RONGE       NOT AVBL
SASKATOON      CLOUDY    12   7  79 S8        29.89F WCI   1
SWIFT CURRENT  CLEAR     27  19  74 SW15      29.88F WCI  15
$$
NOTE: THESE ARE AUTOMATED STATIONS WITH LIMITED QUALITY CONTROL
      "FAIR" INDICATES FEW OR NO CLOUDS BELOW 12,000 FEET WITH NO
      SIGNIFICANT WEATHER AND/OR OBSTRUCTIONS TO VISIBILITY.
      SKY/WX - SKY CONDITION AND SIGNIFICANT WEATHER.
      TMP - AIR TEMPERATURE.    DP   - DEWPOINT TEMPERATURE.
      RH  - RELATIVE HUMIDITY.  PRES - PRESSURE.
      HX  - HEAT INDEX.         WCI  - WIND CHILL INDEX.
$




USA.gov is the U.S. government's official web portal to all federal, state and local government web resources and services.